IK5NLA Vaiano IT current weather conditions

sailwx.info

Wind from 232 at 7 knots

Air temperature 21.1° C
Dewpoint 9.7° C

Last reported at 2018-Apr-26 15:01 UTC.
Time now 2018-Apr-26 15:34 UTC

Location: N 43°58' E 011°06'.
View on Google Maps.

See reports from other nearby stations

  
Tides and Currents Weather Stations Pressure Air Temp Water Temp Dewpoint Dewpoint Depression Visibility Wind Speed Wind Dir Waves Ship Positions
date/time (UTC)wind fromknots sea level pressurealtimeterstation pressurevisibilityair tempwater tempwave heightnotes
2018-Apr-26 15:01 232 7 21.1
2018-Apr-26 14:51 202 5 21.7
2018-Apr-26 14:46 209 6 21.1
2018-Apr-26 14:41 257 8 21.1
2018-Apr-26 14:36 327 7 21.1
2018-Apr-26 14:31 280 6 21.1
2018-Apr-26 14:26 241 7 21.1
2018-Apr-26 14:01 207 8 21.1
2018-Apr-26 13:46 185 7 21.1
2018-Apr-26 13:26 257 9 20.6
2018-Apr-26 13:21 244 9 20.6
2018-Apr-26 13:06 219 8 21.1
2018-Apr-26 13:01 239 7 21.1
2018-Apr-26 12:56 199 8 20.6
2018-Apr-26 12:51 202 8 20.6
2018-Apr-26 12:46 207 8 20.6
2018-Apr-26 12:36 229 9 20.6
2018-Apr-26 12:26 196 9 20.0
2018-Apr-26 12:21 244 8 20.6
2018-Apr-26 12:11 214 6 20.6
2018-Apr-26 12:06 183 7 20.6
2018-Apr-26 11:56 195 7 20.0
2018-Apr-26 11:41 246 7 20.0
2018-Apr-26 11:31 229 7 20.0
2018-Apr-26 11:26 188 8 20.0
2018-Apr-26 11:21 246 7 19.4
2018-Apr-26 11:16 246 7 20.0
2018-Apr-26 11:06 259 6 20.0
2018-Apr-26 11:01 198 6 19.4
2018-Apr-26 10:51 203 6 18.9
2018-Apr-26 10:46 238 6 19.4
2018-Apr-26 10:36 219 9 18.9
2018-Apr-26 10:26 221 9 18.9
2018-Apr-26 10:21 205 8 18.3
2018-Apr-26 10:16 200 6 18.9
2018-Apr-26 10:01 205 7 18.3
2018-Apr-26 09:56 201 7 18.3
2018-Apr-26 09:51 216 6 17.8
2018-Apr-26 09:41 168 7 17.8
2018-Apr-26 09:36 187 8 17.8
2018-Apr-26 09:31 180 6 17.8
2018-Apr-26 09:26 208 6 17.8
2018-Apr-26 09:16 173 7 17.2
2018-Apr-26 09:06 240 6 17.2
2018-Apr-26 08:56 204 6 17.2
2018-Apr-26 08:51 257 6 16.7
2018-Apr-26 08:46 253 6 16.7
2018-Apr-26 08:41 178 6 16.7
2018-Apr-26 08:36 157 6 16.7
2018-Apr-26 08:31 268 7 16.1
2018-Apr-26 08:21 211 6 16.1
2018-Apr-26 08:16 209 6 16.1
2018-Apr-26 08:11 244 6 16.1
2018-Apr-26 08:06 221 6 16.1
2018-Apr-26 08:01 209 5 16.1
2018-Apr-26 07:56 210 3 16.7
2018-Apr-26 07:51 205 3 16.7
2018-Apr-26 07:46 238 3 16.1
2018-Apr-26 07:36 167 2 15.6
2018-Apr-26 07:31 169 2 15.6
2018-Apr-26 07:21 122 1 16.1
2018-Apr-26 07:16 157 1 15.6
2018-Apr-26 07:06 122 1 15.6
2018-Apr-26 06:56 101 2 15.0
2018-Apr-26 06:51 096 2 15.0
2018-Apr-26 06:41 107 2 15.6
2018-Apr-26 06:31 122 2 15.6
2018-Apr-26 06:26 136 2 15.0
2018-Apr-26 06:11 090 3 14.4
2018-Apr-26 06:06 099 2 14.4
2018-Apr-26 05:56 093 2 14.4
2018-Apr-26 05:51 101 2 14.4
2018-Apr-26 05:41 102 2 14.4
2018-Apr-26 05:31 115 1 14.4
2018-Apr-26 05:26 097 0 14.4
2018-Apr-26 05:21 083 14.4
2018-Apr-26 05:16 331 13.9
2018-Apr-26 05:06 331 2 12.8
2018-Apr-26 05:01 331 2 12.8
2018-Apr-26 04:56 334 2 12.2
2018-Apr-26 04:46 334 2 11.7
2018-Apr-26 04:41 360 2 11.7
2018-Apr-26 04:36 013 3 11.7
2018-Apr-26 04:26 351 2 11.7
2018-Apr-26 04:11 011 2 12.2
2018-Apr-26 04:06 037 0 12.2
2018-Apr-26 04:01 269 0 12.2
2018-Apr-26 03:56 265 1 12.2
2018-Apr-26 03:51 263 0 12.2
2018-Apr-26 03:46 264 0 12.2
2018-Apr-26 03:16 096 0 12.8
2018-Apr-26 03:11 236 2 12.8
2018-Apr-26 03:01 269 2 12.8
2018-Apr-26 02:51 256 1 12.8
2018-Apr-26 02:46 238 1 12.8
2018-Apr-26 02:36 330 12.8
2018-Apr-26 02:31 330 0 12.8
2018-Apr-26 02:21 330 12.8
2018-Apr-26 02:16 330 12.2
2018-Apr-26 02:11 333 0 12.2
2018-Apr-26 02:01 331 0 12.8
2018-Apr-26 01:56 015 12.8
2018-Apr-26 01:51 030 0 12.8
2018-Apr-26 01:46 030 1 12.8
2018-Apr-26 01:41 029 1 12.8
2018-Apr-26 01:36 022 1 12.8
2018-Apr-26 01:31 020 1 12.8
2018-Apr-26 01:26 025 0 12.8
2018-Apr-26 01:06 305 0 12.8
2018-Apr-26 00:56 048 1 12.8
2018-Apr-26 00:51 028 0 12.8
2018-Apr-26 00:41 053 1 13.3
2018-Apr-26 00:36 054 1 13.3
2018-Apr-26 00:26 175 3 13.3
2018-Apr-26 00:21 186 4 13.9
2018-Apr-26 00:11 207 4 13.9
2018-Apr-26 00:06 239 4 13.9
2018-Apr-25 23:51 165 6 13.9
2018-Apr-25 23:46 307 8 13.9
2018-Apr-25 23:41 214 7 13.9
2018-Apr-25 23:31 187 4 13.9
2018-Apr-25 23:26 192 6 13.9
2018-Apr-25 23:21 273 6 13.9
2018-Apr-25 23:16 255 6 13.9
2018-Apr-25 23:11 293 6 14.4
2018-Apr-25 22:51 190 3 14.4
2018-Apr-25 22:46 155 4 14.4
2018-Apr-25 22:41 244 3 14.4
2018-Apr-25 22:31 242 5 14.4
2018-Apr-25 22:26 180 3 14.4
2018-Apr-25 22:21 227 3 14.4
2018-Apr-25 22:11 223 4 15.0
2018-Apr-25 22:06 223 5 15.0
2018-Apr-25 21:56 215 4 15.0
2018-Apr-25 21:46 256 4 15.0
2018-Apr-25 21:36 237 3 15.0
2018-Apr-25 21:31 214 3 15.0
2018-Apr-25 21:21 252 5 15.0
2018-Apr-25 21:11 273 3 15.0
2018-Apr-25 21:06 265 3 15.0
2018-Apr-25 20:51 278 4 15.0
2018-Apr-25 20:46 268 4 15.0
2018-Apr-25 20:36 250 3 15.0
2018-Apr-25 20:26 210 6 15.6
2018-Apr-25 20:16 200 5 15.6
2018-Apr-25 20:06 246 4 15.6
2018-Apr-25 20:01 202 4 15.6
2018-Apr-25 19:56 199 3 16.1
2018-Apr-25 19:46 233 4 16.1
2018-Apr-25 19:36 192 4 16.1
2018-Apr-25 19:31 249 3 16.1
2018-Apr-25 19:26 206 3 16.7
2018-Apr-25 19:21 186 4 16.7
2018-Apr-25 19:11 207 4 16.7
2018-Apr-25 19:06 205 4 17.2
2018-Apr-25 18:51 243 7 17.2
2018-Apr-25 18:46 275 7 17.2
2018-Apr-25 18:36 241 8 17.8
2018-Apr-25 18:31 229 7 17.8
2018-Apr-25 18:26 276 6 17.8
2018-Apr-25 18:16 292 5 17.8
2018-Apr-25 18:11 273 6 17.8
2018-Apr-25 18:01 265 8 18.3
2018-Apr-25 17:56 236 7 18.3
2018-Apr-25 17:51 259 7 18.3
2018-Apr-25 17:46 283 6 18.3
2018-Apr-25 17:41 284 8 18.3
2018-Apr-25 17:31 268 10 18.9
2018-Apr-25 17:26 283 10 18.9
2018-Apr-25 17:21 267 10 18.9
2018-Apr-25 17:16 284 11 18.9
2018-Apr-25 17:11 273 10 19.4
2018-Apr-25 17:06 245 11 19.4
2018-Apr-25 17:01 292 11 19.4
2018-Apr-25 16:56 231 11 19.4
2018-Apr-25 16:36 250 10 19.4
2018-Apr-25 16:31 242 9 20.0
2018-Apr-25 16:21 269 11 20.0
2018-Apr-25 16:16 275 12 20.0
2018-Apr-25 16:11 258 11 20.0
2018-Apr-25 15:46 263 12 20.6
2018-Apr-25 15:41 201 13 20.6
2018-Apr-25 15:36 225 13 20.6
2018-Apr-25 15:31 218 12 20.6
2018-Apr-25 15:26 250 13 20.6
2018-Apr-25 15:21 239 11 20.6
2018-Apr-25 15:01 221 11 20.6
2018-Apr-25 14:46 224 9 21.1
2018-Apr-25 04:26 331 0 12.2
2018-Apr-25 04:21 333 0 12.2
2018-Apr-25 04:01 334 1 12.2
2018-Apr-25 03:51 332 1 12.2
2018-Apr-25 03:46 331 1 12.2
2018-Apr-25 03:36 337 1 12.2
2018-Apr-25 03:31 336 1 12.2
2018-Apr-25 03:26 334 2 12.2
2018-Apr-25 03:21 347 1 12.2
2018-Apr-25 03:16 333 0 12.2
2018-Apr-25 03:11 346 12.2
2018-Apr-25 03:06 346 12.2
2018-Apr-25 03:01 346 12.8
2018-Apr-25 02:56 346 12.8
2018-Apr-25 02:51 346 0 12.8
2018-Apr-25 02:46 346 0 12.8
2018-Apr-25 02:41 360 12.8
2018-Apr-25 02:36 030 12.8
2018-Apr-25 02:31 030 12.8
2018-Apr-25 02:21 030 12.8
2018-Apr-25 02:11 040 12.8
2018-Apr-25 02:06 040 12.8
2018-Apr-25 01:41 040 0 12.8
2018-Apr-25 01:36 040 1 12.8
2018-Apr-25 01:26 040 0 12.8
2018-Apr-25 01:21 042 12.8
2018-Apr-25 01:16 046 12.8
2018-Apr-25 00:51 037 13.3
2018-Apr-25 00:46 037 13.3
2018-Apr-25 00:36 029 0 13.3
2018-Apr-25 00:26 028 1 13.3
2018-Apr-25 00:21 038 1 13.3
2018-Apr-25 00:16 015 0 13.3
2018-Apr-25 00:06 256 13.3
2018-Apr-24 23:56 360 0 13.3
2018-Apr-24 23:51 005 1 13.3
2018-Apr-24 23:41 360 13.9
2018-Apr-24 23:36 310 0 13.9
2018-Apr-24 23:31 309 0 13.9
2018-Apr-24 23:21 360 13.9
2018-Apr-24 23:06 360 13.9
2018-Apr-24 23:01 360 13.9
2018-Apr-24 22:51 030 14.4
2018-Apr-24 22:46 030 0 14.4
2018-Apr-24 22:36 037 2 14.4
2018-Apr-24 22:31 038 2 14.4
2018-Apr-24 22:26 025 2 14.4
2018-Apr-24 22:21 055 2 14.4
2018-Apr-24 22:06 253 0 15.6
2018-Apr-24 21:51 254 2 15.6
2018-Apr-24 21:46 267 1 15.6
2018-Apr-24 21:41 298 0 15.6
2018-Apr-24 21:36 164 0 15.6
2018-Apr-24 21:31 334 0 15.6
2018-Apr-24 21:26 292 0 15.0
2018-Apr-24 21:21 315 0 15.0
2018-Apr-24 21:11 138 0 15.0
2018-Apr-24 21:06 136 15.6
2018-Apr-24 21:01 046 0 15.6
2018-Apr-24 20:41 287 1 16.7
2018-Apr-24 20:36 265 2 16.7
2018-Apr-24 20:26 236 1 16.7
2018-Apr-24 20:11 287 6 17.2
2018-Apr-24 20:01 293 7 17.2
2018-Apr-24 19:46 279 7 17.8
2018-Apr-24 19:41 279 7 17.8
2018-Apr-24 19:36 287 7 17.8
2018-Apr-24 19:26 315 10 17.8
2018-Apr-24 19:11 294 7 17.8
2018-Apr-24 18:51 286 12 17.8
2018-Apr-24 18:36 286 13 17.8
2018-Apr-24 18:31 292 13 17.8
2018-Apr-24 18:21 311 13 18.3
2018-Apr-24 18:11 275 12 18.3
2018-Apr-24 18:01 281 9 18.9
2018-Apr-24 17:56 279 9 18.9
2018-Apr-24 17:51 284 9 18.9
2018-Apr-24 17:46 291 9 18.9
2018-Apr-24 17:36 247 9 19.4
2018-Apr-24 17:26 265 9 19.4
2018-Apr-24 17:21 247 9 19.4
2018-Apr-24 17:16 236 9 20.0
2018-Apr-24 17:11 238 9 20.0
2018-Apr-24 16:46 266 6 20.6
2018-Apr-24 16:36 253 7 20.6
2018-Apr-24 16:11 279 8 21.1
2018-Apr-24 16:06 211 6 21.1
2018-Apr-24 16:01 209 6 21.1
2018-Apr-24 15:46 210 6 21.1
2018-Apr-24 15:41 192 6 21.1
2018-Apr-24 15:36 219 7 21.1
2018-Apr-24 15:31 256 8 21.1
2018-Apr-24 15:26 227 7 21.1
2018-Apr-24 15:21 201 6 21.1
2018-Apr-24 15:16 214 7 21.1